Miscellaneous Local Product
Issued by NWS Hastings, NE

Home | Current Version | Previous Version | Text Only | Print | Product List | Glossary On
Versions: 1 2 3 4 5 6 7 8 9 10 11 12 13 14 15 16 17 18 19 20 21 22 23 24 25 26 27 28 29 30 31 32 33 34 35 36 37 38 39 40 41 42 43 44 45 46 47 48 49 50
166
AXUS43 KGID 270402
MISGRI

GID CWA HOURLY WEATHER ROUNDUP
NATIONAL WEATHER SERVICE HASTINGS NE
1100 PM CDT TUE JUL 26 2016

NOTE: "FAIR" INDICATES FEW OR NO CLOUDS BELOW 12,000 FEET WITH NO
SIGNIFICANT WEATHER AND/OR OBSTRUCTIONS TO VISIBILITY.

...SOUTH CENTRAL NEBRASKA...

CITY           SKY/WX    TMP DP  RH WIND       PRES   REMARKS
GRAND ISLAND   PTCLDY    73  68  84 SE3       30.06R
HASTINGS       MOCLDY    76  64  66 S5        30.06R
KEARNEY        MOCLDY    73  64  73 SE7       30.07R
ORD            PTCLDY    75  65  70 SE9       30.01R
YORK           PTCLDY    73  64  73 SE9       30.04R
AURORA         PTCLDY    71  68  91 SE5       30.05R
LEXINGTON      PTCLDY    76  66  71 SE14      30.04R
HOLDREGE       CLOUDY    73  65  75 SE6       30.05R
HEBRON         CLEAR     73  67  79 S3        30.02R

...NEBRASKA PANHANDLE...

CITY           SKY/WX    TMP DP  RH WIND       PRES   REMARKS
CHADRON        CLOUDY    68  59  73 N7        30.05R
ALLIANCE       LGT RAIN  68  58  70 E14       30.05R
SCOTTSBLUFF    PTCLDY    72  56  57 NE14      30.07F
SIDNEY         CLEAR     69  46  43 W12       30.08F

...WESTERN AND NORTH CENTRAL NEBRASKA...

CITY           SKY/WX    TMP DP  RH WIND       PRES   REMARKS
VALENTINE      LGT RAIN  63  32  31 MISG      30.09R
AINSWORTH      TSTM      61  61 100 E13       30.11S
ONEILL         CLOUDY    77  64  64 SE7       30.03F
BROKEN BOW     CLOUDY    73  66  78 SE10      30.03R
IMPERIAL       CLEAR     75  62  64 S6        30.03R
NORTH PLATTE   CLOUDY    76  65  68 SE10      30.03R
MCCOOK         CLOUDY    80  63  55 S10G22    30.00R

...EASTERN NEBRASKA...

CITY           SKY/WX    TMP DP  RH WIND       PRES   REMARKS
NORFOLK        PTCLDY    72  64  76 SE6       30.03R
SO SIOUX CITY  PTCLDY    73  67  81 S7        30.01S
TEKAMAH        CLEAR     71  66  84 S5        30.01S
COLUMBUS       CLEAR     73  61  64 SE5       30.04R
ALBION         PTCLDY    71  65  82 SE5       30.05S
OMAHA EPPLEY   PTCLDY    77  68  73 SE6       30.02R
OFFUTT AFB     PTCLDY    69  68  96 E2        30.02R
MILLARD        PTCLDY    73  69  86 CALM      30.03S
LINCOLN        PTCLDY    77  64  64 SE8       30.03R
NEBRASKA CITY  CLEAR     73  66  80 CALM      30.02F
BEATRICE       CLEAR     73  66  78 E5        30.01S
FALLS CITY     CLEAR     73  69  87 CALM      29.99S

...NORTHERN KANSAS...

CITY           SKY/WX    TMP DP  RH WIND       PRES   REMARKS
GOODLAND       CLOUDY    69  59  70 S15       30.08S
HILL CITY      CLOUDY    79  67  66 S8        30.04R
NORTON         CLEAR     79  59  50 SE9       30.01F
SMITH CENTER   CLEAR     73  66  78 SE9       30.03R
BELOIT         CLEAR     75  68  78 E5        30.00R
HAYS           CLEAR     75  63  64 SE6       30.03R
RUSSELL        CLEAR     76  68  76 SE9       30.02R
CONCORDIA      CLEAR     72  67  84 SE6       30.01S
SALINA         CLEAR     79  69  71 SE7       30.00R
TOPEKA         CLEAR     74  69  85 CALM      29.99F



USA.gov is the U.S. government's official web portal to all federal, state and local government web resources and services.